Location: Newark
(45.8667°N, 9.7333°E)
Time: 14:41:18
(UTC+00:00)

A-11 Canister half - Pass Details

Date: 26 January 2020
Orbit: 1517 x 1683 km, 47.2° (Epoch: 23 February)

Event Time Altitude Azimuth Distance (km) Brightness Sun altitude
Rises 04:33:07 0° 291° (WNW) 4,670 - -23.8°
Reaches altitude 10° 04:36:13 10° 288° (WNW) 3,682 - -23.3°
Exits shadow 04:41:12 35° 271° (W) 2,277 9.3 -22.4°
Maximum altitude 04:45:08 56° 214° (SSW) 1,771 9.1 -21.7°
Drops below altitude 10° 04:54:09 10° 139° (SE) 3,718 11.7 -20.1°
Sets 04:57:18 0° 135° (SE) 4,718 12.4 -19.6°
